Terminal Aerodrome Forecast
Issued by NWS Memphis, TN

Home | Current Version | Previous Version | Text Only | Print | Product List | Glossary On
Versions: 1 2 3 4 5 6 7 8 9 10 11 12 13 14
000
FTUS44 KMEG 270522
TAFMKL
TAF
KMKL 270522Z 2706/2806 34003KT P6SM SKC
     FM271200 36006KT P6SM FEW035 BKN090
     FM271600 36010G16KT P6SM VCSH SCT025 OVC040
      TEMPO 2717/2721 6SM -SHRA BKN025
     FM280100 34007KT P6SM BKN040=

USA.gov is the U.S. government's official web portal to all federal, state and local government web resources and services.